Regional Weather Roundup
Issued by NWS

Home | Current Version | Previous Version | Text Only | Print | Product List | Glossary Off
Versions: 1 2 3 4 5 6 7 8 9 10 11 12 13 14 15 16 17 18 19 20 21 22 23 24 25 26 27 28 29 30 31 32 33 34 35 36 37 38 39 40 41 42 43 44 45 46 47 48 49 50

730
ASUS45 KPSR 122110
RWRAZ

ARIZONA HOURLY REGIONAL WEATHER ROUNDUP
NATIONAL WEATHER SERVICE PHOENIX AZ
200 PM MST FRI FEB 12 2016

NOTE: FAIR INDICATES FEW OR NO CLOUDS BELOW 12,000 FEET WITH NO
SIGNIFICANT WEATHER AND/OR OBSTRUCTIONS TO VISIBILITY.

AZZ001>003-036-122200-
NORTHWEST ARIZONA

CITY           SKY/WX    TMP DP  RH WIND       PRES   REMARKS
BULLHEAD CITY  SUNNY     75  27  16 N18       30.12F
KINGMAN        SUNNY     72  21  14 N3        30.21F
$$

AZZ004>008-015-016-018-122200-
NORTH CENTRAL ARIZONA

CITY           SKY/WX    TMP DP  RH WIND       PRES   REMARKS
GRAND CANYON   SUNNY     66  10  11 SW5       30.35F
WILLIAMS       SUNNY     66  16  14 VRB6G12   30.39F
PRESCOTT       SUNNY     73  14  10 VRB3      30.26F
FLAGSTAFF      SUNNY     61  15  16 E7        30.36F
PAYSON         SUNNY     72  23  16 SW9       30.28F
PAGE           SUNNY     55  32  41 VRB7      30.33F
$$

AZZ009>014-017-122200-
NORTHEAST ARIZONA

CITY           SKY/WX    TMP DP  RH WIND       PRES   REMARKS
WINSLOW        SUNNY     64  20  18 E3        30.31F
SAINT JOHNS    SUNNY     70  11  10 N7        30.29F
WINDOW ROCK    SUNNY     63   0   8 VRB5      30.35F
SHOW LOW       SUNNY     63  19  19 CALM      30.35F
$$

AZZ023-122200-
GREATER PHOENIX AREA

CITY           SKY/WX    TMP DP  RH WIND       PRES   REMARKS
PHOENIX        MOSUNNY   83  23  11 S5        30.07F
BUCKEYE        SUNNY     79  32  18 SE9       30.10F
GLENDALE       MOSUNNY   79  32  18 CALM      30.10F
LUKE AFB       SUNNY     79  30  16 VRB1      30.07F
DEER VALLEY    SUNNY     78  28  16 CALM      30.09F
SCOTTSDALE     SUNNY     80  23  12 VRB3      30.10F
MESA-FALCON    SUNNY    N/A N/A N/A CALM      30.09
MESA-GATEWAY   SUNNY     79  27  14 NW6       30.10F
CHANDLER       SUNNY     79  25  13 VRB5      30.09F
$$

AZZ027-028-122200-
SOUTHWEST MARICOPA COUNTY AND PINAL COUNTY

CITY           SKY/WX    TMP DP  RH WIND       PRES   REMARKS
CASA GRANDE    SUNNY     79  28  15 N3        30.10F
GILA BEND      SUNNY     83  32  16 N8        30.05F
$$

AZZ503-504-507>509-122200-
SOUTHEAST ARIZONA

CITY           SKY/WX    TMP DP  RH WIND       PRES   REMARKS
TUCSON         SUNNY     84  15   7 E3        30.13F
DAVIS-MONTHAN  SUNNY     82  18   9 VRB5      30.11F
RYAN FIELD     SUNNY     84  27  12 N6        30.12F
NOGALES        SUNNY     82   6   5 S6        30.16F
SIERRA VISTA   SUNNY     76   1   5 SE10G18   30.23F
DOUGLAS        SUNNY     78   6   6 S9        30.20F
SAFFORD        SUNNY     75  18  11 SE5       30.18F
$$

AZZ020-021-025-026-031-122200-
SOUTHWEST ARIZONA

CITY           SKY/WX    TMP DP  RH WIND       PRES   REMARKS
YUMA           MOSUNNY   84  26  12 N10       30.06F
$$

CAZ031-033-041-043-047-048-061-122200-
SOUTHERN CALIFORNIA

CITY           SKY/WX    TMP DP  RH WIND       PRES   REMARKS
DOWNTOWN L.A.  SUNNY     85  31  14 CALM      30.04F
L.A. AIRPORT   PTSUNNY   73  42  32 W10       30.06F
SAN DIEGO      MOSUNNY   77  34  21 NW7       30.06F
BURBANK        SUNNY     82  30  15 CALM      30.06F
ONTARIO        PTSUNNY   84  23  10 VRB3      30.06F
RIVERSIDE      SUNNY     86  21   9 CALM      30.05F
PALM SPRINGS   SUNNY     84  25  11 CALM      30.09F
EL CENTRO NAS  MOSUNNY   84  21  10 VRB7      30.08F
IMPERIAL       SUNNY     84  24  11 N6        30.06F
BLYTHE         SUNNY     80  26  13 VRB3      30.09
NEEDLES        SUNNY     78  28  16 VRB5      30.12F
$$

NVZ020-UTZ003-122200-
SOUTHERN NEVADA-UTAH

CITY           SKY/WX    TMP DP  RH WIND       PRES   REMARKS
LAS VEGAS      MOSUNNY   70  23  17 CALM      30.16F
SALT LAKE CITY CLOUDY    31  27  85 W5        30.39F FOG     WCI  26
$$

NMZ009-TXZ055-122200-
NEW MEXICO-WEST TEXAS

CITY           SKY/WX    TMP DP  RH WIND       PRES   REMARKS
ALBUQUERQUE    SUNNY     64  19  17 CALM      30.31F
EL PASO        SUNNY     73  12   9 CALM      30.24F
$$


........................KEY........................
SKY/WX - SKY CONDITION/WEATHER
TMP    - TEMPERATURE IN FAHRENHEIT
DP     - DEW POINT IN FAHRENHEIT
RH     - RELATIVE HUMIDITY IN PERCENT
WIND   - DIRECTION AND SPEED IN MILES PER HOUR (MPH)
VRB    - VARIABLE WIND DIRECTION
PRES   - MEAN SEA LEVEL PRESSURE IN INCHES OF MERCURY
         F - FALLING PRESSURE   R - RISING PRESSURE
         S - STEADY PRESSURE
VSB    - VISIBILITY IN MILES
HX     - HEAT INDEX IN FAHRENHEIT
WCI    - WIND CHILL INDEX IN FAHRENHEIT
TC     - TEMPERATURE IN CELSIUS WHICH IS ALSO KNOWN AS
         TEMPERATURE IN CENTIGRADE
AFB    - AIR FORCE BASE
         LUKE AFB IS LUKE AIR FORCE BASE
         DAVIS-MONTHAN IS DAVIS-MONTHAN AIR FORCE BASE
NAS    - NAVAL AIR STATION
         EL CENTRO NAS IS EL CENTRO NAVAL AIR STATION
N/A    - NOT AVAILABLE





USA.gov is the U.S. government's official web portal to all federal, state and local government web resources and services.